User: anonymous   Login
Location: Saint-Restitut
(44.3351°N, 4.7915°E)
Time: 21:24:13
(UTC+00:00)
Language:

CSL-04 Debris - Orbit

View from above orbital plane
View from above orbital plane
View from above satellite
View from above satellite

Ground track
Ground track

The orbit data is extracted from the following two-line orbital elements,

1 25733U 99025D   24062.60937473  .00000561  00000-0  29823-3 0  9997
2 25733  98.7891 108.0496 0015437  64.5123 295.7646 14.17435936281433
Epoch (UTC): 02 March 2024 14:37:29
Eccentricity: 0.0015437
inclination: 98.7891°
perigee height: 823 km
apogee height: 845 km
right ascension of ascending node: 108.0496°
argument of perigee: 64.5123°
revolutions per day: 14.17435936
mean anomaly at epoch: 295.7646°
orbit number at epoch: 28143

The dashed part of the orbit path shows where the satellite is in the earth's shadow,  

DLR